Jackson, KY

12:24 AM EDT on September 30, 2016 (GMT -0400)
Carroll

Weather History for KJKL - December, 2010

Change the Weather History Date:

Saturday, December 11, 2010

  Actual Average Record
Temperature  
Mean Temperature 45 °F 39 °F  
Max Temperature 53 °F 47 °F 74 °F (2007)
Min Temperature 36 °F 31 °F 14 °F (1995)
Degree Days  
Heating Degree Days 20 26  
Month to date heating degree days 395 268  
Since 1 July heating degree days 1082 1068  
Cooling Degree Days 0 0  
Month to date cooling degree days 0 0  
Year to date cooling degree days 1504 1154  
Moisture  
Dew Point 27 °F    
Average Humidity 45    
Maximum Humidity 52    
Minimum Humidity 38    
Precipitation  
Precipitation 0.00 in 0.14 in 1.81 in (2008)
Month to date precipitation 0.54 1.56  
Year to date precipitation 42.83 45.72  
Snow  
Snow 0.00 in 0.10 in 2.60 in (1982)
Month to date snowfall 7.5 1.2  
Since 1 July snowfall 7.5 1.8  
Snow Depth 0.00 in    
Sea Level Pressure  
Sea Level Pressure 29.94 in    
Wind  
Wind Speed 4 mph (SSE)    
Max Wind Speed 7 mph    
Max Gust Speed 13 mph    
Visibility 9 miles    
Events Rain    
T = Trace of Precipitation, MM = Missing Value Source: NWS Daily Summary

Daily Weather History Graph

Daily Weather History Graph

Search for Another Location

Airport or City:

Trip Planner

Search our weather history database for the weather conditions in past years. The results will help you decide how hot, cold, wet, or windy it might be!

Date:

Astronomy

Dec. 11, 2010 Rise Set
Actual Time 7:38 AM EST 5:15 PM EST
Civil Twilight 7:08 AM EST 5:44 PM EST
Nautical Twilight 6:36 AM EST 6:16 PM EST
Astronomical Twilight 6:04 AM EST 6:48 PM EST
Moon 11:35 AM EST (12/11) 11:12 PM EST (12/11)
Length of Visible Light 10h 35m
Length of Day
9h 37m
Waxing Crescent, 33% of the Moon is Illuminated
Dec 11
Waxing Crescent
Dec 13
First Quarter
Dec 21
Full
Dec 27
Last Quarter
Jan 4
New

Hourly Weather History & Observations

Time (EST) Temp. Windchill Dew Point Humidity Pressure Visibility Wind Dir Wind Speed Gust Speed Precip Events Conditions
12:53 AM 36.0 °F 33.3 °F 19.9 °F 52% 30.14 in 10.0 mi SSW 3.5 mph - N/A   Clear
1:53 AM 36.0 °F 33.3 °F 19.0 °F 50% 30.13 in 10.0 mi SSW 3.5 mph - N/A   Clear
2:53 AM 37.0 °F 34.5 °F 19.0 °F 48% 30.13 in 10.0 mi South 3.5 mph - N/A   Clear
3:53 AM 37.0 °F 34.5 °F 19.0 °F 48% 30.13 in 10.0 mi SSE 3.5 mph - N/A   Clear
4:53 AM 37.0 °F 33.3 °F 19.0 °F 48% 30.13 in 10.0 mi SSE 4.6 mph - N/A   Clear
5:53 AM 37.0 °F 34.5 °F 19.0 °F 48% 30.14 in 10.0 mi SSE 3.5 mph - N/A   Overcast
6:53 AM 37.4 °F 34.9 °F 19.4 °F 48% 30.11 in 10.0 mi South 3.5 mph - N/A   Overcast
7:53 AM 37.9 °F - 19.0 °F 47% 30.13 in 10.0 mi Calm Calm - N/A   Overcast
8:53 AM 39.0 °F 34.8 °F 19.0 °F 45% 30.12 in 10.0 mi SSE 5.8 mph - N/A   Overcast
9:53 AM 41.0 °F 38.0 °F 21.9 °F 47% 30.09 in 10.0 mi Variable 4.6 mph - N/A   Clear
10:53 AM 44.1 °F 42.5 °F 24.1 °F 45% 30.07 in 10.0 mi Variable 3.5 mph - N/A   Overcast
11:53 AM 48.0 °F - 24.1 °F 39% 30.01 in 10.0 mi Variable 3.5 mph - N/A   Scattered Clouds
12:53 PM 51.1 °F - 27.0 °F 39% 29.98 in 10.0 mi South 8.1 mph - N/A   Clear
1:09 PM 50.0 °F - 28.4 °F 43% 29.96 in 10.0 mi Variable 5.8 mph - N/A   Mostly Cloudy
1:23 PM 51.8 °F - 28.4 °F 41% 29.94 in 10.0 mi Calm Calm - N/A   Mostly Cloudy
1:53 PM 50.0 °F - 30.0 °F 46% 29.94 in 10.0 mi Variable 4.6 mph - N/A   Mostly Cloudy
2:07 PM 50.0 °F - 30.2 °F 47% 29.92 in 10.0 mi Variable 4.6 mph - N/A   Overcast
2:53 PM 50.0 °F - 28.9 °F 44% 29.89 in 10.0 mi South 4.6 mph - N/A   Partly Cloudy
3:53 PM 48.9 °F - 30.0 °F 48% 29.88 in 10.0 mi Variable 3.5 mph - N/A   Overcast
4:53 PM 48.0 °F - 28.0 °F 46% 29.85 in 10.0 mi SSE 5.8 mph - N/A   Overcast
5:53 PM 48.0 °F - 28.0 °F 46% 29.82 in 10.0 mi Variable 4.6 mph - N/A   Overcast
6:53 PM 46.4 °F 44.3 °F 28.4 °F 50% 29.79 in 10.0 mi Variable 4.6 mph - N/A Rain Light Rain
7:53 PM 44.1 °F 40.1 °F 32.0 °F 63% 29.75 in 10.0 mi SE 6.9 mph - 0.01 in Rain Light Rain
8:53 PM 43.0 °F 38.8 °F 34.0 °F 71% 29.72 in 10.0 mi SSE 6.9 mph - 0.01 in Rain Light Rain
9:53 PM 41.0 °F 37.1 °F 36.0 °F 82% 29.70 in 9.0 mi SSE 5.8 mph - 0.05 in Rain Light Rain
10:53 PM 39.9 °F - 37.0 °F 89% 29.70 in 6.0 mi Calm Calm - 0.06 in Rain Light Rain
11:26 PM 39.2 °F 37.0 °F 37.4 °F 93% 29.69 in 1.5 mi Variable 3.5 mph - 0.03 in Rain Light Rain
11:40 PM 39.2 °F 37.0 °F 37.4 °F 93% 29.67 in 3.0 mi Variable 3.5 mph - 0.04 in Rain Light Rain
11:53 PM 39.9 °F - 37.0 °F 89% 29.67 in 6.0 mi Calm Calm - 0.04 in Rain Light Rain